sat.trackr.live / text

‹ back to catalog

STARLINK-3925

NORAD 52498 · 2022-049AZ

PAYLOAD ACTIVE UNKNOWN

§ Identity

Operator
Country
US
Launch date
2022-05-06
Launch site
AFETR
Launch vehicle
Mass (kg)
RCS (m²)

Purposes: comms

External: N2YO · Heavens-Above · Gunter

§ Orbital elements

Epoch: 2026-09-19T22:20:00.379680Z

Period
93.85 min
Inclination
53.1596°
Eccentricity
0.0001206
Mean motion
15.34387157 rev/d
Perigee alt
461.9 km
Apogee alt
463.6 km
Semi-major
6,840.9 km
B*
5.1600e-5
RAAN
240.0540°
Arg perigee
87.4213°
Mean anomaly
272.6928°
Rev number
24,194

§ Raw data

STARLINK-39251 52498U 22049AZ  26262.93055995  .00001367  00000+0  51600-4 0  99902 52498  53.1596 240.0540 0001206  87.4213 272.6928 15.34387157241948

JSON: /api/v1/satellites/52498 · /tle

For live sub-satellite position, see the globe view (requires WebGL).

§ Visibility from observer

Set your observer location to see the next 7 days of passes ≥ 10°. The values pass through the URL so the page stays shareable.

No JS? Fill the form by hand. The geolocation button needs JavaScript.